Comox, British Columbia

5:47 AM PDT on May 24, 2017 (GMT -0700)
Comox

Weather History for CYQQ - November, 2013

Change the Weather History Date:

Wednesday, November 20, 2013

  Actual Average Record
Temperature  
Mean Temperature 34 °F -  
Max Temperature 40 °F 44 °F 53 °F (2002)
Min Temperature 28 °F 34 °F 24 °F (1996)
Degree Days  
Heating Degree Days 31    
Moisture  
Dew Point 20 °F    
Average Humidity 59    
Maximum Humidity 75    
Minimum Humidity 35    
Precipitation  
Precipitation 0.00 in 0.26 in - ()
Sea Level Pressure  
Sea Level Pressure 30.37 in    
Wind  
Wind Speed 6 mph ()    
Max Wind Speed 17 mph    
Max Gust Speed 24 mph    
Visibility 19.9 miles    
Events      
Averages and records for this station are not official NWS values.
T = Trace of Precipitation, MM = Missing Value Source: Averaged Metar Reports

Daily Weather History Graph

Daily Weather History Graph

Search for Another Location

Airport or City:

Trip Planner

Search our weather history database for the weather conditions in past years. The results will help you decide how hot, cold, wet, or windy it might be!

Date:

Astronomy

Nov. 20, 2013 Rise Set
Actual Time 7:39 AM PST 4:30 PM PST
Civil Twilight 7:03 AM PST 5:06 PM PST
Nautical Twilight 6:24 AM PST 5:45 PM PST
Astronomical Twilight 5:46 AM PST 6:23 PM PST
Moon 7:18 PM PST (11/20) 10:09 AM PST (11/20)
Length of Visible Light 10h 02m
Length of Day
8h 50m
Waning Gibbous, 91% of the Moon is Illuminated
Nov 20
Waning Gibbous
Nov 25
Last Quarter
Dec 2
New
Dec 9
First Quarter
Dec 17
Full

Hourly Weather History & Observations

Time (PST) Temp. Windchill Dew Point Humidity Pressure Visibility Wind Dir Wind Speed Gust Speed Precip Events Conditions
12:00 AM 33.8 °F 23.2 °F 15.8 °F 48% 30.16 in 20.0 mi NW 17.3 mph 24.2 mph N/A   Clear
1:00 AM 33.8 °F 26.4 °F 17.6 °F 52% 30.18 in 20.0 mi NW 9.2 mph - N/A   Clear
2:00 AM 32.0 °F 24.2 °F 17.6 °F 55% 30.20 in 20.0 mi WNW 9.2 mph - N/A   Partly Cloudy
3:00 AM 30.2 °F 21.9 °F 17.6 °F 60% 30.22 in 20.0 mi WNW 9.2 mph - N/A   Partly Cloudy
4:00 AM 29 °F - 17 °F 47% 30.23 in 19 mi Calm Calm - -   Partly Cloudy
4:00 AM 30.2 °F - 15.8 °F 55% 30.23 in 20.0 mi Calm Calm - N/A   Scattered Clouds
5:00 AM 30.2 °F 24.3 °F 17.6 °F 60% 30.25 in 20.0 mi WNW 5.8 mph - N/A   Scattered Clouds
6:00 AM 30.2 °F 22.6 °F 17.6 °F 60% 30.27 in 20.0 mi West 8.1 mph - N/A   Scattered Clouds
7:00 AM 30.2 °F 22.6 °F 17.6 °F 60% 30.30 in 20.0 mi West 8.1 mph - N/A   Partly Cloudy
8:00 AM 30.2 °F 23.4 °F 17.6 °F 60% 30.33 in 20.0 mi West 6.9 mph - N/A   Partly Cloudy
9:00 AM 32.0 °F 26.4 °F 21.2 °F 64% 30.35 in 20.0 mi West 5.8 mph - N/A   Partly Cloudy
10:00 AM 34 °F - 20 °F 43% 30.37 in 19 mi WNW 6.9 mph - -   Scattered Clouds
10:00 AM 33.8 °F 27.7 °F 19.4 °F 56% 30.37 in 20.0 mi WNW 6.9 mph - N/A   Partly Cloudy
11:00 AM 37.4 °F 32.1 °F 26.6 °F 65% 30.38 in 20.0 mi NNW 6.9 mph - N/A   Partly Cloudy
12:00 PM 37.4 °F 31.4 °F 26.6 °F 65% 30.39 in 20.0 mi NNW 8.1 mph - N/A   Partly Cloudy
1:00 PM 39.2 °F 34.2 °F 24.8 °F 56% 30.40 in 20.0 mi NNW 6.9 mph - N/A   Partly Cloudy
2:00 PM 39.2 °F 35.9 °F 17.6 °F 42% 30.40 in 20.0 mi WNW 4.6 mph - N/A   Partly Cloudy
3:00 PM 41.0 °F - 19.4 °F 42% 30.41 in 20.0 mi Calm Calm - N/A   Partly Cloudy
4:00 PM 38 °F - 20 °F 35% 30.42 in 19 mi NW 2.3 mph - -   Scattered Clouds
4:00 PM 39.2 °F - 19.4 °F 45% 30.42 in 20.0 mi NW 2.3 mph - N/A   Partly Cloudy
5:00 PM 32.0 °F - 24.8 °F 75% 30.43 in 20.0 mi Calm Calm - N/A   Partly Cloudy
6:00 PM 30.2 °F - 23.0 °F 75% 30.45 in 20.0 mi Calm Calm - N/A   Clear
7:00 PM 28.4 °F - 21.2 °F 74% 30.47 in 20.0 mi WNW 2.3 mph - N/A   Clear
8:00 PM 30.2 °F - 23.0 °F 75% 30.49 in 20.0 mi Calm Calm - N/A   Partly Cloudy
9:00 PM 28.4 °F - 21.2 °F 74% 30.51 in 20.0 mi Calm Calm - N/A   Partly Cloudy
10:00 PM 28 °F - 22 °F 68% 30.53 in 19 mi Calm Calm - -   Clear
10:00 PM 28.4 °F - 21.2 °F 74% 30.53 in 20.0 mi Calm Calm - N/A   Scattered Clouds
11:00 PM 28.4 °F - 21.2 °F 74% 30.54 in 20.0 mi West 2.3 mph - N/A   Scattered Clouds